Regional Weather Roundup
Issued by NWS

Home | Current Version | Previous Version | Text Only | Print | Product List | Glossary Off
Versions: 1 2 3 4 5 6 7 8 9 10 11 12 13 14 15 16 17 18 19 20 21 22 23 24 25 26 27 28 29 30 31 32 33 34 35 36 37 38 39 40 41 42 43 44 45 46 47 48 49 50

000
ASUS43 KLMK 221602
RWRKY
KENTUCKY REGIONAL WEATHER ROUNDUP
NATIONAL WEATHER SERVICE LOUISVILLE KY
1100 AM EST SAT NOV 22 2014

NOTE "FAIR" INDICATES FEW OR NO CLOUDS BELOW 12,000 FEET
WITH NO SIGNIFICANT WEATHER AND/OR OBSTRUCTIONS TO VISIBILITY.

KYZ001>023-026-027-061>063-070>075-221700-
WESTERN AND SOUTH CENTRAL KENTUCKY

CITY           SKY/WX    TMP DP  RH WIND       PRES   REMARKS
PADUCAH        CLOUDY    58  40  51 S9G22     30.22F
HENDERSON      MOSUNNY   59  39  47 S22G28    30.22F
OWENSBORO      PTSUNNY   58  40  51 S14G21    30.25F
HOPKINSVILLE   PTSUNNY   58  36  43 S9        30.28F
BOWLING GREEN  CLOUDY    56  30  37 S15G23    30.32F
GLASGOW        NOT AVBL
$$

KYZ024-025-028>034-038-045-046-053-221700-
NORTH CENTRAL KENTUCKY

CITY           SKY/WX    TMP DP  RH WIND       PRES   REMARKS
LOUISVILLE/SDF PTSUNNY   58  34  40 S17       30.26F
LOUISVILLE/LOU MOSUNNY   55  34  45 S14       30.27F
FORT KNOX      CLOUDY    55  34  45 S14G25    30.26F
$$

KYZ035>037-039>044-047>052-055>060-089>105-221700-
NORTHEAST KENTUCKY

CITY           SKY/WX    TMP DP  RH WIND       PRES   REMARKS
LEXINGTON      CLOUDY    51  29  42 S13       30.31S
COVINGTON      LGT RAIN  47  32  56 S15G22    30.25F
FRANKFORT      CLOUDY    53  31  42 S12G21    30.28F
$$

KYZ054-064>069-076>088-106>120-221700-
SOUTHEAST KENTUCKY

CITY           SKY/WX    TMP DP  RH WIND       PRES   REMARKS
JACKSON        MOSUNNY   51  23  33 VRB3      30.35F
LONDON         SUNNY     52  24  33 S10       30.36F
SOMERSET       NOT AVBL
MIDDLESBORO    NOT AVBL
MONTICELLO     MOSUNNY   56  28  34 S14       30.38F
$$




USA.gov is the U.S. government's official web portal to all federal, state and local government web resources and services.